Location: Chin
(49.7667°N, 112.4500°W)
Time: 09:42:56
(UTC+00:00)

Envisat - Pass Details

Date: 04 December 2021
Orbit: 764 x 766 km, 98.2° (Epoch: 23 January)

Event Time Altitude Azimuth Distance (km) Brightness Sun altitude
Rises 13:50:40 0° 6° (N) 3,247 6.1 -12.2°
Reaches altitude 10° 13:53:15 10° 355° (N) 2,316 5.2 -11.8°
Maximum altitude 13:57:30 27° 298° (WNW) 1,432 3.8 -11.1°
Drops below altitude 10° 14:01:44 10° 242° (WSW) 2,302 5.1 -10.5°
Sets 14:04:19 0° 230° (SW) 3,224 6.0 -10.1°
